Location: Vancouver
(49.2500°N, 123.1330°W)
Time: 23:15:13
(UTC-08:00)

SO-67 - Visible Passes

Search period start: 17 December 2014 00:00
Search period end: 27 December 2014 00:00
Orbit: 453 x 457 km, 97.1° (Epoch: 17 December)

Date Brightness Start Highest point End Pass type
(mag) Time Alt. Az. Time Alt. Az. Time Alt. Az.
17 Dec ? 07:08:47 10° NNE 07:12:09 52° E 07:15:29 10° S visible
17 Dec ? 17:44:39 10° SE 17:47:44 32° ENE 17:50:49 10° N visible
17 Dec ? 19:18:12 10° SW 19:20:42 19° W 19:23:13 10° NW visible
18 Dec ? 06:35:57 10° NE 06:38:38 21° E 06:41:17 10° SE visible
18 Dec ? 17:12:36 10° E 17:14:36 15° ENE 17:16:36 10° NNE visible
18 Dec ? 18:43:51 10° S 18:47:08 45° W 18:50:27 10° NNW visible
19 Dec ? 18:10:19 10° SSE 18:13:42 67° ENE 18:17:07 10° N visible
20 Dec ? 07:01:31 10° NNE 07:04:47 42° E 07:08:02 10° S visible
20 Dec ? 17:37:28 10° SE 17:40:23 27° ENE 17:43:19 10° N visible
20 Dec ? 19:10:30 10° SSW 19:13:15 22° W 19:16:02 10° NW visible
21 Dec ? 06:28:45 10° NE 06:31:08 18° E 06:33:30 10° SE visible
21 Dec ? 17:05:38 10° E 17:07:11 13° ENE 17:08:44 10° NE visible
21 Dec ? 18:36:16 10° S 18:39:38 56° W 18:43:01 10° NNW visible
22 Dec ? 18:02:48 10° SSE 18:06:08 53° ENE 18:09:29 10° N visible
22 Dec ? 19:38:01 10° WSW 19:39:20 12° W 19:40:40 10° WNW visible
23 Dec ? 06:53:58 10° NNE 06:57:07 34° E 07:00:15 10° SSE visible
23 Dec ? 17:30:02 10° ESE 17:32:45 22° ENE 17:35:29 10° NNE visible
23 Dec ? 19:02:34 10° SSW 19:05:31 27° W 19:08:30 10° NW visible
24 Dec ? 06:21:21 10° NE 06:23:20 15° E 06:25:19 10° SE visible
24 Dec ? 16:58:44 10° ENE 16:59:29 11° ENE 17:00:15 10° NE visible
24 Dec ? 18:28:26 10° S 18:31:50 71° WSW 18:35:16 10° NNW visible
25 Dec ? 07:19:27 10° NNE 07:22:53 73° ESE 07:26:17 10° S visible
25 Dec ? 17:55:02 10° SE 17:58:16 43° ENE 18:01:32 10° N visible
25 Dec ? 19:29:26 10° SW 19:31:22 14° W 19:33:19 10° NW visible
26 Dec ? 06:46:09 10° NE 06:49:09 28° E 06:52:07 10° SSE visible
26 Dec ? 17:22:22 10° ESE 17:24:50 19° ENE 17:27:18 10° NNE visible
26 Dec ? 18:54:22 10° SSW 18:57:30 33° W 19:00:39 10° NNW visible
